Location: Béaulencourt
(50.0796°N, 2.8795°E)
Time: 00:28:47
(UTC+00:00)

ARIANE 6 FM1 Upper Stage - Pass Details

Date: 14 March 2026
Orbit: 524 x 604 km, 62.0° (Epoch: 13 April)

Event Time Altitude Azimuth Distance (km) Brightness Sun altitude
Exits shadow 04:23:02 33° 225° (SW) 930 3.3 -16.9°
Maximum altitude 04:24:49 89° 321° (NW) 545 2.5 -16.7°
Drops below altitude 10° 04:28:50 10° 46° (NE) 1,789 6.2 -16.1°
Sets 04:31:01 0° 46° (NE) 2,675 7.3 -15.7°
